S56WDN-10 Weather Reports


time (UTC)temp
C
wind
direction
speed
KPH
gust
KPH
rain 1hr
cm
rain 24hr
cm
rain mn
cm
humidity
%
barometer
mb
20260507174651 18 0 0.0 0.0 0.00 0.00 0.00 60 1012.1
20260507174151 18 0 0.0 0.0 0.00 0.00 0.00 60 1011.9
20260507173651 18 0 0.0 0.0 0.00 0.00 0.00 61 1011.9
20260507173151 18 0 0.0 0.0 0.00 0.00 0.00 61 1011.9
20260507172651 18 0 0.0 0.0 0.00 0.00 0.00 62 1011.8
20260507172151 18 0 0.0 0.0 0.00 0.00 0.00 64 1011.8
20260507171651 18 0 0.0 0.0 0.00 0.00 0.00 64 1011.9
20260507171151 18 0 0.0 0.0 0.00 0.00 0.00 64 1011.8
20260507170651 18 0 0.0 0.0 0.00 0.00 0.00 64 1011.8
20260507170151 18 0 0.0 0.0 0.00 0.00 0.00 63 1011.8
20260507165651 18 0 0.0 0.0 0.00 0.00 0.00 63 1011.8
20260507165151 19 0 0.0 0.0 0.00 0.00 0.00 63 1011.8
20260507164651 19 0 0.0 0.0 0.00 0.00 0.00 63 1011.7
20260507164151 20 0 0.0 0.0 0.00 0.00 0.00 61 1011.8
20260507163651 20 0 0.0 0.0 0.00 0.00 0.00 58 1011.7
20260507163151 20 0 0.0 0.0 0.00 0.00 0.00 57 1011.7
20260507162651 20 0 0.0 0.0 0.00 0.00 0.00 56 1011.8
20260507162151 21 0 0.0 0.0 0.00 0.00 0.00 55 1011.8
20260507161651 21 0 0.0 0.0 0.00 0.00 0.00 55 1011.7
20260507161151 21 0 0.0 0.0 0.00 0.00 0.00 55 1011.5
20260507160651 21 0 0.0 0.0 0.00 0.00 0.00 55 1011.5
20260507160151 20 0 0.0 0.0 0.00 0.00 0.00 56 1011.4
20260507155651 20 0 0.0 0.0 0.00 0.00 0.00 55 1011.5
20260507155151 20 0 0.0 0.0 0.00 0.00 0.00 55 1011.4
20260507154651 20 0 0.0 0.0 0.00 0.00 0.00 55 1011.4
20260507154151 21 0 0.0 0.0 0.00 0.00 0.00 54 1011.4
20260507153651 21 0 0.0 0.0 0.00 0.00 0.00 52 1011.3
20260507153151 21 0 0.0 0.0 0.00 0.00 0.00 52 1011.3
20260507152651 21 0 0.0 0.0 0.00 0.00 0.00 52 1011.2
20260507152151 22 0 0.0 0.0 0.00 0.00 0.00 51 1011.1
20260507151651 22 0 0.0 0.0 0.00 0.00 0.00 52 1011.1
20260507151151 22 0 0.0 0.0 0.00 0.00 0.00 51 1011.2
20260507150651 22 0 0.0 0.0 0.00 0.00 0.00 50 1011.1
20260507150151 22 0 0.0 0.0 0.00 0.00 0.00 50 1011.2
20260507145651 23 0 0.0 0.0 0.00 0.00 0.00 49 1011.1
20260507145151 23 0 0.0 0.0 0.00 0.00 0.00 51 1011.2
20260507144651 23 0 0.0 0.0 0.00 0.00 0.00 52 1011.2
20260507144151 23 0 0.0 0.0 0.00 0.00 0.00 51 1011.2
20260507143651 23 0 0.0 0.0 0.00 0.00 0.00 51 1011.3
20260507143151 22 0 0.0 0.0 0.00 0.00 0.00 52 1011.1
20260507142651 22 0 0.0 0.0 0.00 0.00 0.00 51 1011.2
20260507142151 23 0 0.0 0.0 0.00 0.00 0.00 50 1011.2
20260507141651 23 0 0.0 0.0 0.00 0.00 0.00 50 1011.2
20260507141151 23 0 0.0 0.0 0.00 0.00 0.00 50 1011.4
20260507140651 23 0 0.0 0.0 0.00 0.00 0.00 51 1011.2
20260507140151 23 0 0.0 0.0 0.00 0.00 0.00 50 1011.4
20260507135651 23 0 0.0 0.0 0.00 0.00 0.00 50 1011.4
20260507135151 23 0 0.0 0.0 0.00 0.00 0.00 50 1011.5
20260507134651 23 0 0.0 0.0 0.00 0.00 0.00 50 1011.5
20260507134151 23 0 0.0 0.0 0.00 0.00 0.00 51 1011.6
20260507133651 23 0 0.0 0.0 0.00 0.00 0.00 51 1011.6
20260507133151 23 0 0.0 0.0 0.00 0.00 0.00 52 1011.6
20260507132651 23 0 0.0 0.0 0.00 0.00 0.00 52 1011.8
20260507132151 22 0 0.0 0.0 0.00 0.00 0.00 52 1011.9
20260507131651 22 0 0.0 0.0 0.00 0.00 0.00 53 1012.0
20260507131151 22 0 0.0 0.0 0.00 0.00 0.00 54 1012.0
20260507130651 21 0 0.0 0.0 0.00 0.00 0.00 56 1011.9
20260507130151 20 0 0.0 0.0 0.00 0.00 0.00 58 1012.0
20260507125651 20 0 0.0 0.0 0.00 0.00 0.00 59 1012.2
20260507125151 21 0 0.0 0.0 0.00 0.00 0.00 57 1012.2
20260507124651 21 0 0.0 0.0 0.00 0.00 0.00 57 1012.2
20260507124151 21 0 0.0 0.0 0.00 0.00 0.00 57 1012.2
20260507123651 21 0 0.0 0.0 0.00 0.00 0.00 58 1012.0
20260507123151 21 0 0.0 0.0 0.00 0.00 0.00 59 1012.2
20260507122651 21 0 0.0 0.0 0.00 0.00 0.00 59 1012.3
20260507122151 20 0 0.0 0.0 0.00 0.00 0.00 59 1012.3
20260507121651 20 0 0.0 0.0 0.00 0.00 0.00 59 1012.4
20260507121151 20 0 0.0 0.0 0.00 0.00 0.00 59 1012.4
20260507120651 20 0 0.0 0.0 0.00 0.00 0.00 58 1012.4
20260507120151 21 0 0.0 0.0 0.00 0.00 0.00 58 1012.5
20260507115651 21 0 0.0 0.0 0.00 0.00 0.00 58 1012.5
20260507115151 21 0 0.0 0.0 0.00 0.00 0.00 59 1012.6
20260507114651 21 0 0.0 0.0 0.00 0.00 0.00 59 1012.6
20260507114151 21 0 0.0 0.0 0.00 0.00 0.00 59 1012.5
20260507113651 21 0 0.0 0.0 0.00 0.00 0.00 59 1012.5
20260507113151 21 0 0.0 0.0 0.00 0.00 0.00 58 1012.5
20260507112651 21 0 0.0 0.0 0.00 0.00 0.00 57 1012.5
20260507112151 22 0 0.0 0.0 0.00 0.00 0.00 56 1012.5
20260507111651 22 0 0.0 0.0 0.00 0.00 0.00 55 1012.6
20260507111151 22 0 0.0 0.0 0.00 0.00 0.00 55 1012.6
20260507110652 22 0 0.0 0.0 0.00 0.00 0.00 54 1012.6
20260507110152 22 0 0.0 0.0 0.00 0.00 0.00 54 1012.6
20260507105652 22 0 0.0 0.0 0.00 0.00 0.00 57 1012.6
20260507105152 22 0 0.0 0.0 0.00 0.00 0.00 57 1012.5
20260507104652 21 0 0.0 0.0 0.00 0.00 0.00 57 1012.6
20260507104152 21 0 0.0 0.0 0.00 0.00 0.00 58 1012.6
20260507103652 21 0 0.0 0.0 0.00 0.00 0.00 58 1012.7
20260507103152 21 0 0.0 0.0 0.00 0.00 0.00 58 1012.8
20260507102652 21 0 0.0 0.0 0.00 0.00 0.00 58 1012.9
20260507102152 20 0 0.0 0.0 0.00 0.00 0.00 58 1012.9
20260507101652 20 0 0.0 0.0 0.00 0.00 0.00 59 1012.7
20260507101152 20 0 0.0 0.0 0.00 0.00 0.00 61 1012.8
20260507100652 20 0 0.0 0.0 0.00 0.00 0.00 60 1012.9
20260507100152 20 0 0.0 0.0 0.00 0.00 0.00 58 1012.9
20260507095652 20 0 0.0 0.0 0.00 0.00 0.00 58 1013.0
20260507095156 20 0 0.0 0.0 0.00 0.00 0.00 60 1013.3
20260507094652 20 0 0.0 0.0 0.00 0.00 0.00 60 1013.2
20260507094152 20 0 0.0 0.0 0.00 0.00 0.00 60 1013.3
20260507093652 20 0 0.0 0.0 0.00 0.00 0.00 60 1013.0
20260507093152 20 0 0.0 0.0 0.00 0.00 0.00 60 1013.1
20260507092652 21 0 0.0 0.0 0.00 0.00 0.00 61 1013.2
20260507092152 20 0 0.0 0.0 0.00 0.00 0.00 61 1013.2
20260507091652 20 0 0.0 0.0 0.00 0.00 0.00 62 1013.2
20260507091152 20 0 0.0 0.0 0.00 0.00 0.00 63 1013.2
20260507090652 20 0 0.0 0.0 0.00 0.00 0.00 66 1013.3
20260507090152 20 0 0.0 0.0 0.00 0.00 0.00 66 1013.1
20260507085652 18 0 0.0 0.0 0.00 0.00 0.00 69 1013.2
20260507085152 18 0 0.0 0.0 0.00 0.00 0.00 70 1013.2
20260507084652 18 0 0.0 0.0 0.00 0.00 0.00 72 1013.2
20260507084152 17 0 0.0 0.0 0.00 0.00 0.00 73 1013.3
20260507083652 17 0 0.0 0.0 0.00 0.00 0.00 74 1013.3
20260507083152 17 0 0.0 0.0 0.00 0.00 0.00 76 1013.3
20260507082652 17 0 0.0 0.0 0.00 0.00 0.00 77 1013.3
20260507082152 17 0 0.0 0.0 0.00 0.00 0.00 78 1013.2
20260507081652 16 0 0.0 0.0 0.00 0.00 0.00 78 1013.1
20260507081152 15 0 0.0 0.0 0.00 0.00 0.00 80 1013.3
20260507080652 15 0 0.0 0.0 0.00 0.00 0.00 80 1013.3
20260507080152 15 0 0.0 0.0 0.00 0.00 0.00 81 1013.3
20260507075652 15 0 0.0 0.0 0.00 0.00 0.00 81 1013.3
20260507075152 15 0 0.0 0.0 0.00 0.00 0.00 82 1013.3
20260507074652 15 0 0.0 0.0 0.00 0.00 0.00 82 1013.3
20260507074152 14 0 0.0 0.0 0.00 0.00 0.00 82 1013.2
20260507073652 14 0 0.0 0.0 0.00 0.00 0.00 83 1013.3
20260507073152 14 0 0.0 0.0 0.00 0.00 0.00 83 1013.3
20260507072652 14 0 0.0 0.0 0.00 0.00 0.00 83 1013.3
20260507072152 13 0 0.0 0.0 0.00 0.00 0.00 84 1013.2
20260507071652 13 0 0.0 0.0 0.00 0.00 0.00 84 1013.2
20260507071152 13 0 0.0 0.0 0.00 0.00 0.00 85 1013.2
20260507070652 13 0 0.0 0.0 0.00 0.00 0.00 85 1013.2
20260507070152 13 0 0.0 0.0 0.00 0.00 0.00 85 1013.2
20260507065652 13 0 0.0 0.0 0.00 0.00 0.00 85 1013.2
20260507065152 13 0 0.0 0.0 0.00 0.00 0.00 85 1013.1
20260507064652 13 0 0.0 0.0 0.00 0.00 0.00 85 1013.2
20260507064152 13 0 0.0 0.0 0.00 0.00 0.00 85 1013.0
20260507063652 13 0 0.0 0.0 0.00 0.00 0.00 85 1013.2
20260507063152 12 0 0.0 0.0 0.00 0.00 0.00 85 1013.1
20260507062652 12 0 0.0 0.0 0.00 0.00 0.00 86 1013.1
20260507062152 12 0 0.0 0.0 0.00 0.00 0.00 86 1013.0
20260507061652 12 0 0.0 0.0 0.00 0.00 0.00 86 1013.0
20260507061152 12 0 0.0 0.0 0.00 0.00 0.00 87 1013.0
20260507060652 12 0 0.0 0.0 0.00 0.00 0.00 87 1012.9
20260507060152 12 0 0.0 0.0 0.00 0.00 0.00 87 1012.9
20260507055652 12 0 0.0 0.0 0.00 0.00 0.00 87 1013.0
20260507055152 12 0 0.0 0.0 0.00 0.00 0.00 87 1012.8
20260507054652 12 0 0.0 0.0 0.00 0.00 0.00 87 1012.8
20260507054152 12 0 0.0 0.0 0.00 0.00 0.00 87 1012.8
20260507053652 12 0 0.0 0.0 0.00 0.00 0.00 88 1012.7
20260507053152 12 0 0.0 0.0 0.00 0.00 0.00 88 1012.6
20260507052652 11 0 0.0 0.0 0.00 0.00 0.00 88 1012.6
20260507052152 11 0 0.0 0.0 0.00 0.00 0.00 88 1012.6
20260507051652 11 0 0.0 0.0 0.00 0.00 0.00 88 1012.4
20260507051152 11 0 0.0 0.0 0.00 0.00 0.00 88 1012.4
20260507050652 11 0 0.0 0.0 0.00 0.00 0.00 88 1012.6
20260507050152 11 0 0.0 0.0 0.00 0.00 0.00 88 1012.5
20260507045652 11 0 0.0 0.0 0.00 0.00 0.00 88 1012.3
20260507045152 11 0 0.0 0.0 0.00 0.00 0.00 88 1012.4
20260507044652 11 0 0.0 0.0 0.00 0.00 0.00 88 1012.4
20260507044152 11 0 0.0 0.0 0.00 0.00 0.00 88 1012.3
20260507043652 11 0 0.0 0.0 0.00 0.00 0.00 88 1012.3
20260507043152 11 0 0.0 0.0 0.00 0.00 0.00 88 1012.3
20260507042652 11 0 0.0 0.0 0.00 0.00 0.00 88 1012.2
20260507042152 11 0 0.0 0.0 0.00 0.00 0.00 88 1012.0
20260507041652 11 0 0.0 0.0 0.00 0.00 0.00 88 1012.2
20260507041152 11 0 0.0 0.0 0.00 0.00 0.00 87 1012.2
20260507040652 11 0 0.0 0.0 0.00 0.00 0.00 87 1012.0
20260507040152 11 0 0.0 0.0 0.00 0.00 0.00 87 1011.9
20260507035652 11 0 0.0 0.0 0.00 0.00 0.00 87 1011.9
20260507035152 11 0 0.0 0.0 0.00 0.00 0.00 87 1011.9
20260507034652 11 0 0.0 0.0 0.00 0.00 0.00 87 1011.9
20260507034152 11 0 0.0 0.0 0.00 0.00 0.00 87 1011.8
20260507033652 11 0 0.0 0.0 0.00 0.00 0.00 87 1011.9
20260507033152 11 0 0.0 0.0 0.00 0.00 0.00 87 1011.9
20260507032652 11 0 0.0 0.0 0.00 0.00 0.00 87 1011.9
20260507032152 12 0 0.0 0.0 0.00 0.00 0.00 87 1011.8
20260507031653 12 0 0.0 0.0 0.00 0.00 0.00 87 1011.9
20260507031153 12 0 0.0 0.0 0.00 0.00 0.00 87 1011.8
20260507030653 12 0 0.0 0.0 0.00 0.00 0.00 86 1011.8
20260507030153 12 0 0.0 0.0 0.00 0.00 0.00 86 1011.6
20260507025653 12 0 0.0 0.0 0.00 0.00 0.00 86 1011.7
20260507025153 12 0 0.0 0.0 0.00 0.00 0.00 86 1011.6
20260507024653 12 0 0.0 0.0 0.00 0.00 0.00 86 1011.5
20260507024153 12 0 0.0 0.0 0.00 0.00 0.00 86 1011.4
20260507023653 12 0 0.0 0.0 0.00 0.00 0.00 86 1011.5
20260507023153 12 0 0.0 0.0 0.00 0.00 0.00 86 1011.5
20260507022653 12 0 0.0 0.0 0.00 0.00 0.00 86 1011.5
20260507022153 12 0 0.0 0.0 0.00 0.00 0.00 86 1011.6
20260507021653 12 0 0.0 0.0 0.00 0.00 0.00 86 1011.6
20260507021153 12 0 0.0 0.0 0.00 0.00 0.00 86 1011.5
20260507020653 12 0 0.0 0.0 0.00 0.00 0.00 86 1011.6
20260507020153 12 0 0.0 0.0 0.00 0.00 0.00 85 1011.5
20260507015653 12 0 0.0 0.0 0.00 0.00 0.00 85 1011.6
20260507015153 12 0 0.0 0.0 0.00 0.00 0.00 86 1011.6
20260507014653 12 0 0.0 0.0 0.00 0.00 0.00 86 1011.7
20260507014153 12 0 0.0 0.0 0.00 0.00 0.00 85 1011.6
20260507013653 12 0 0.0 0.0 0.00 0.00 0.00 85 1011.6
20260507013153 12 0 0.0 0.0 0.00 0.00 0.00 85 1011.6
20260507012653 12 0 0.0 0.0 0.00 0.00 0.00 85 1011.5
20260507012153 12 0 0.0 0.0 0.00 0.00 0.00 85 1011.5
20260507011653 12 0 0.0 0.0 0.00 0.00 0.00 85 1011.5
20260507011153 12 0 0.0 0.0 0.00 0.00 0.00 84 1011.4
20260507010653 12 0 0.0 0.0 0.00 0.00 0.00 85 1011.3
20260507010153 12 0 0.0 0.0 0.00 0.00 0.00 85 1011.3
20260507005653 12 0 0.0 0.0 0.00 0.00 0.00 85 1011.3
20260507005153 12 0 0.0 0.0 0.00 0.00 0.00 84 1011.3
20260507004653 12 0 0.0 0.0 0.00 0.00 0.00 84 1011.5
20260507004153 12 0 0.0 0.0 0.00 0.00 0.00 84 1011.4
20260507003653 12 0 0.0 0.0 0.00 0.00 0.00 84 1011.5
20260507003153 13 0 0.0 0.0 0.00 0.00 0.00 84 1011.5
20260507002653 13 0 0.0 0.0 0.00 0.00 0.00 83 1011.6
20260507002153 13 0 0.0 0.0 0.00 0.00 0.00 83 1011.5
20260507001653 13 0 0.0 0.0 0.00 0.00 0.00 83 1011.6
20260507001153 13 0 0.0 0.0 0.00 0.00 0.00 84 1011.5
20260507000653 13 0 0.0 0.0 0.00 0.00 0.00 85 1011.5
20260507000153 13 0 0.0 0.0 0.00 0.00 0.00 85 1011.7
20260506235653 13 0 0.0 0.0 0.00 0.00 0.00 85 1011.6
20260506235153 13 0 0.0 0.0 0.00 0.00 0.00 85 1011.5
20260506234653 13 0 0.0 0.0 0.00 0.00 0.00 85 1011.5
20260506234153 13 0 0.0 0.0 0.00 0.00 0.00 85 1011.3
20260506233653 13 0 0.0 0.0 0.00 0.00 0.00 85 1011.5
20260506233153 13 0 0.0 0.0 0.00 0.00 0.00 85 1011.5
20260506232653 13 0 0.0 0.0 0.00 0.00 0.00 87 1011.7
20260506232153 13 0 0.0 0.0 0.00 0.00 0.00 87 1011.6
20260506231653 13 0 0.0 0.0 0.00 0.00 0.00 87 1011.7
20260506231153 13 0 0.0 0.0 0.00 0.00 0.00 87 1011.7
20260506230653 13 0 0.0 0.0 0.00 0.00 0.00 87 1011.7
20260506230153 13 0 0.0 0.0 0.00 0.00 0.00 87 1011.8
20260506225653 13 0 0.0 0.0 0.00 0.00 0.00 87 1011.9
20260506225153 13 0 0.0 0.0 0.00 0.00 0.00 87 1011.8
20260506224653 13 0 0.0 0.0 0.00 0.00 0.00 87 1011.7
20260506224153 13 0 0.0 0.0 0.00 0.00 0.00 87 1011.7
20260506223653 13 0 0.0 0.0 0.00 0.00 0.00 87 1011.7
20260506223153 13 0 0.0 0.0 0.00 0.00 0.00 87 1011.6
20260506222653 13 0 0.0 0.0 0.00 0.00 0.00 86 1011.5
20260506222153 13 0 0.0 0.0 0.00 0.00 0.00 86 1011.6
20260506221653 13 0 0.0 0.0 0.00 0.00 0.00 86 1011.4
20260506221153 13 0 0.0 0.0 0.00 0.00 0.00 86 1011.2
20260506220653 13 0 0.0 0.0 0.00 0.00 0.00 86 1011.3
20260506220153 13 0 0.0 0.0 0.00 0.00 0.00 86 1011.3
20260506215653 13 0 0.0 0.0 0.00 0.00 0.00 86 1011.1
20260506215153 13 0 0.0 0.0 0.00 0.00 0.00 86 1011.1
20260506214653 13 0 0.0 0.0 0.00 0.00 0.00 86 1011.1
20260506214153 13 0 0.0 0.0 0.00 0.00 0.00 85 1011.0
20260506213653 13 0 0.0 0.0 0.00 0.00 0.00 85 1011.1
20260506213153 13 0 0.0 0.0 0.00 0.00 0.00 86 1011.2
20260506212653 13 0 0.0 0.0 0.00 0.00 0.00 86 1011.2
20260506212153 13 0 0.0 0.0 0.00 0.00 0.00 86 1011.2
20260506211653 13 0 0.0 0.0 0.00 0.00 0.00 86 1011.3
20260506211153 13 0 0.0 0.0 0.00 0.00 0.00 85 1011.4
20260506210653 13 0 0.0 0.0 0.00 0.00 0.00 85 1011.2
20260506210153 13 0 0.0 0.0 0.00 0.00 0.00 85 1011.2
20260506205653 13 0 0.0 0.0 0.00 0.00 0.00 84 1011.2
20260506205153 13 0 0.0 0.0 0.00 0.00 0.00 82 1010.9
20260506204653 13 0 0.0 0.0 0.00 0.00 0.00 82 1011.0
20260506204153 13 0 0.0 0.0 0.00 0.00 0.00 82 1011.0
20260506203653 13 0 0.0 0.0 0.00 0.00 0.00 82 1010.9
20260506203153 13 0 0.0 0.0 0.00 0.00 0.00 82 1010.8
20260506202653 13 0 0.0 0.0 0.00 0.00 0.00 82 1010.6
20260506202153 13 0 0.0 0.0 0.00 0.00 0.00 82 1010.6
20260506201653 13 0 0.0 0.0 0.00 0.00 0.00 82 1010.6
20260506201153 13 0 0.0 0.0 0.00 0.00 0.00 82 1010.5
20260506200653 13 0 0.0 0.0 0.00 0.00 0.00 82 1010.6
20260506200153 13 0 0.0 0.0 0.00 0.00 0.00 82 1010.7
20260506195653 13 0 0.0 0.0 0.00 0.00 0.00 82 1010.8
20260506195153 13 0 0.0 0.0 0.00 0.00 0.00 82 1010.7
20260506194653 13 0 0.0 0.0 0.00 0.00 0.00 82 1010.4
20260506194153 13 0 0.0 0.0 0.00 0.00 0.00 82 1010.4
20260506193654 13 0 0.0 0.0 0.00 0.00 0.00 82 1010.3
20260506193153 13 0 0.0 0.0 0.00 0.00 0.00 82 1010.4
20260506192653 13 0 0.0 0.0 0.00 0.00 0.00 82 1010.2
20260506192153 13 0 0.0 0.0 0.00 0.00 0.00 82 1010.1
20260506191654 13 0 0.0 0.0 0.00 0.00 0.00 81 1010.2
20260506191153 13 0 0.0 0.0 0.00 0.00 0.00 81 1010.1
20260506190653 13 0 0.0 0.0 0.00 0.00 0.00 81 1010.0
20260506190154 13 0 0.0 0.0 0.00 0.00 0.00 81 1009.9
20260506185654 13 0 0.0 0.0 0.00 0.00 0.00 80 1009.9
20260506185154 14 0 0.0 0.0 0.00 0.00 0.00 80 1010.1
20260506184654 14 0 0.0 0.0 0.00 0.00 0.00 79 1009.9
20260506184154 14 0 0.0 0.0 0.00 0.00 0.00 79 1009.9
20260506183654 15 0 0.0 0.0 0.00 0.00 0.00 80 1009.8
20260506183154 15 0 0.0 0.0 0.00 0.00 0.00 79 1009.8
20260506182654 15 0 0.0 0.0 0.00 0.00 0.00 79 1009.8
20260506182154 15 0 0.0 0.0 0.00 0.00 0.00 78 1009.7
20260506181654 15 0 0.0 0.0 0.00 0.00 0.00 78 1009.7
20260506181154 16 0 0.0 0.0 0.00 0.00 0.00 77 1009.6
20260506180654 16 0 0.0 0.0 0.00 0.00 0.00 77 1009.7
20260506180154 16 0 0.0 0.0 0.00 0.00 0.00 77 1009.6
20260506175654 16 0 0.0 0.0 0.00 0.00 0.00 76 1009.7
20260506175154 16 0 0.0 0.0 0.00 0.00 0.00 75 1009.7